Red Oak, IA

3:14 PM CDT on July 23, 2017 (GMT -0500)
Red Oak Municipal

Weather History for KRDK - October, 2012

Change the Weather History Date:

Saturday, October 13, 2012

  Actual Average Record
Temperature  
Mean Temperature 66 °F -  
Max Temperature 77 °F 67 °F 89 °F (1975)
Min Temperature 55 °F 41 °F 18 °F (1979)
Cooling Degree Days 1    
Growing Degree Days 16 (Base 50)    
Moisture  
Dew Point 60 °F    
Average Humidity 81    
Maximum Humidity 88    
Minimum Humidity 65    
Precipitation  
Precipitation 1.83 in - - ()
Sea Level Pressure  
Sea Level Pressure 29.78 in    
Wind  
Wind Speed 10 mph (South)    
Max Wind Speed 17 mph    
Max Gust Speed 31 mph    
Visibility 8 miles    
Events Rain    
Averages and records for this station are not official NWS values.
T = Trace of Precipitation, MM = Missing Value Source: NWS Daily Summary

Daily Weather History Graph

Daily Weather History Graph

Search for Another Location

Airport or City:

Trip Planner

Search our weather history database for the weather conditions in past years. The results will help you decide how hot, cold, wet, or windy it might be!

Date:

Astronomy

Oct. 13, 2012 Rise Set
Actual Time 7:30 AM CDT 6:42 PM CDT
Civil Twilight 7:03 AM CDT 7:10 PM CDT
Nautical Twilight 6:31 AM CDT 7:42 PM CDT
Astronomical Twilight 5:59 AM CDT 8:13 PM CDT
Moon 5:21 AM CDT (10/13) 5:27 PM CDT (10/13)
Length of Visible Light 12h 07m
Length of Day
11h 11m
Waning Crescent, 5% of the Moon is Illuminated
Oct 13
Waning Crescent
Oct 15
New
Oct 21
First Quarter
Oct 29
Full
Nov 6
Last Quarter

Hourly Weather History & Observations

Time (CDT) Temp. Dew Point Humidity Pressure Visibility Wind Dir Wind Speed Gust Speed Precip Events Conditions
12:55 AM 55.4 °F 48.2 °F 77% 29.99 in 10.0 mi SSE 8.1 mph - N/A Rain Light Rain
1:15 AM 55.4 °F 48.2 °F 77% 29.98 in 10.0 mi South 8.1 mph - N/A   Overcast
1:35 AM 55.4 °F 50.0 °F 82% 29.97 in 10.0 mi South 11.5 mph - N/A Rain Light Rain
1:55 AM 57.2 °F 51.8 °F 82% 29.95 in 7.0 mi South 8.1 mph - 0.01 in Rain Rain
2:15 AM 57.2 °F 51.8 °F 82% 29.93 in 7.0 mi South 10.4 mph - 0.02 in   Overcast
2:35 AM 57.2 °F 51.8 °F 82% 29.93 in 7.0 mi South 10.4 mph - 0.02 in   Overcast
2:55 AM 57.2 °F 53.6 °F 88% 29.92 in 7.0 mi South 9.2 mph - 0.02 in   Overcast
3:15 AM 57.2 °F 53.6 °F 88% 29.92 in 7.0 mi South 6.9 mph - N/A   Overcast
3:35 AM 57.2 °F 53.6 °F 88% 29.91 in 7.0 mi South 8.1 mph - 0.01 in Rain Light Rain
3:55 AM 57.2 °F 53.6 °F 88% 29.90 in 7.0 mi South 10.4 mph - 0.05 in Rain Light Rain
4:15 AM 59.0 °F 53.6 °F 82% 29.89 in 5.0 mi SSE 6.9 mph - N/A Rain Light Rain
4:35 AM 59.0 °F 53.6 °F 82% 29.87 in 5.0 mi South 10.4 mph - N/A Rain Light Rain
4:55 AM 60.8 °F 55.4 °F 82% 29.85 in 2.0 mi South 15.0 mph 24.2 mph 0.01 in Rain Light Rain
5:15 AM 60.8 °F 55.4 °F 82% 29.86 in 5.0 mi South 13.8 mph 27.6 mph 0.08 in Rain Light Rain
5:35 AM 60.8 °F 57.2 °F 88% 29.91 in 5.0 mi SSW 17.3 mph 31.1 mph 0.22 in Rain Heavy Rain
5:55 AM 60.8 °F 55.4 °F 82% 29.88 in 10.0 mi SW 4.6 mph - 0.30 in Rain Rain
6:15 AM 60.8 °F 55.4 °F 82% 29.86 in 7.0 mi SSE 5.8 mph - 0.05 in Rain Light Rain
6:35 AM 60.8 °F 55.4 °F 82% 29.83 in 7.0 mi SSE 9.2 mph - 0.06 in Rain Light Rain
6:55 AM 60.8 °F 57.2 °F 88% 29.83 in 10.0 mi SSE 8.1 mph - 0.06 in   Mostly Cloudy
7:15 AM 62.6 °F 57.2 °F 82% 29.83 in 7.0 mi South 9.2 mph - N/A   Overcast
7:35 AM 62.6 °F 59.0 °F 88% 29.81 in 5.0 mi SSE 9.2 mph - N/A   Overcast
7:55 AM 64.4 °F 59.0 °F 83% 29.84 in 5.0 mi SW 4.6 mph - N/A   Haze
8:15 AM 64.4 °F 60.8 °F 88% 29.83 in 4.0 mi South 6.9 mph - N/A   Overcast
8:35 AM 64.4 °F 60.8 °F 88% 29.82 in 3.0 mi South 6.9 mph - N/A   Overcast
8:55 AM 64.4 °F 60.8 °F 88% 29.81 in 3.0 mi South 6.9 mph - N/A Rain Light Rain
9:35 AM 66.2 °F 62.6 °F 88% 29.78 in 7.0 mi South 13.8 mph - 0.01 in   Mostly Cloudy
9:55 AM 66.2 °F 62.6 °F 88% 29.77 in 5.0 mi South 6.9 mph - 0.01 in Rain Light Rain
10:15 AM 66.2 °F 62.6 °F 88% 29.80 in 5.0 mi SW 4.6 mph - N/A   Mostly Cloudy
10:35 AM 66.2 °F 62.6 °F 88% 29.79 in 5.0 mi SW 3.5 mph - N/A   Overcast
10:55 AM 69.8 °F 64.4 °F 83% 29.80 in 7.0 mi SSW 9.2 mph - N/A   Mostly Cloudy
11:15 AM 69.8 °F 64.4 °F 83% 29.79 in 7.0 mi South 11.5 mph - N/A   Scattered Clouds
11:35 AM 69.8 °F 64.4 °F 83% 29.78 in 7.0 mi SSW 13.8 mph - N/A   Mostly Cloudy
11:55 AM 69.8 °F 64.4 °F 83% 29.77 in 7.0 mi South 16.1 mph 19.6 mph N/A   Mostly Cloudy
12:35 PM 73.4 °F 66.2 °F 78% 29.75 in 10.0 mi SSW 15.0 mph 21.9 mph N/A   Mostly Cloudy
1:15 PM 73.4 °F 64.4 °F 73% 29.73 in 10.0 mi SSW 12.7 mph 18.4 mph N/A   Overcast
1:35 PM 75.2 °F 64.4 °F 69% 29.72 in 10.0 mi SSW 12.7 mph - N/A   Overcast
1:55 PM 77.0 °F 64.4 °F 65% 29.71 in 10.0 mi SSW 15.0 mph - N/A   Overcast
2:15 PM 77.0 °F 64.4 °F 65% 29.71 in 10.0 mi South 17.3 mph 27.6 mph N/A   Overcast
2:35 PM 75.2 °F 64.4 °F 69% 29.70 in 10.0 mi South 16.1 mph 20.7 mph N/A   Overcast
3:15 PM 75.2 °F 64.4 °F 69% 29.69 in 10.0 mi South 10.4 mph 21.9 mph N/A   Overcast
3:35 PM 73.4 °F 64.4 °F 73% 29.68 in 10.0 mi South 13.8 mph 24.2 mph N/A   Overcast
3:55 PM 75.2 °F 66.2 °F 73% 29.67 in 10.0 mi SSW 15.0 mph 20.7 mph N/A   Mostly Cloudy
4:15 PM 77.0 °F 66.2 °F 69% 29.68 in 10.0 mi South 13.8 mph - N/A   Mostly Cloudy
4:35 PM 73.4 °F 66.2 °F 78% 29.67 in 10.0 mi South 13.8 mph 18.4 mph N/A   Mostly Cloudy
4:55 PM 75.2 °F 66.2 °F 73% 29.67 in 10.0 mi SSE 13.8 mph 18.4 mph N/A   Mostly Cloudy
5:15 PM 73.4 °F 66.2 °F 78% 29.68 in 10.0 mi South 12.7 mph - N/A   Scattered Clouds
5:35 PM 73.4 °F 66.2 °F 78% 29.68 in 10.0 mi South 12.7 mph 17.3 mph N/A   Mostly Cloudy
5:55 PM 73.4 °F 66.2 °F 78% 29.68 in 10.0 mi South 11.5 mph - N/A   Overcast
6:15 PM 71.6 °F 66.2 °F 83% 29.68 in 7.0 mi SSW 6.9 mph - 0.01 in Rain Rain
6:35 PM 71.6 °F 64.4 °F 78% 29.68 in 10.0 mi South 15.0 mph - 0.01 in   Overcast
7:15 PM 69.8 °F 64.4 °F 83% 29.66 in 7.0 mi SSE 8.1 mph - N/A   Overcast
7:35 PM 69.8 °F 64.4 °F 83% 29.65 in 10.0 mi SSE 5.8 mph - N/A   Overcast
7:55 PM 69.8 °F 64.4 °F 83% 29.63 in 10.0 mi SE 5.8 mph - N/A   Overcast
9:15 PM 66.2 °F 62.6 °F 88% 29.67 in 2.0 mi SSW 5.8 mph - 0.70 in Rain Heavy Rain
9:35 PM 64.4 °F 60.8 °F 88% 29.65 in 7.0 mi NNE 9.2 mph 16.1 mph 1.12 in Rain Heavy Rain
9:55 PM 64.4 °F 60.8 °F 88% 29.62 in 10.0 mi WNW 9.2 mph - 1.25 in Rain Rain
10:15 PM 64.4 °F 59.0 °F 83% 29.64 in 10.0 mi SW 4.6 mph - 0.10 in Rain Heavy Rain
11:15 PM 64.4 °F 59.0 °F 83% 29.59 in 10.0 mi NNE 6.9 mph - 0.01 in Rain Light Rain
11:35 PM 62.6 °F 59.0 °F 88% 29.56 in 10.0 mi NE 11.5 mph - 0.01 in   Scattered Clouds